Location: Burera
(21.3780°N, 81.9534°E)
Time: 11:40:58
(UTC+00:00)

Cosmos 2251 Rocket - Pass Details

Date: 13 August 2020
Orbit: 764 x 792 km, 74.0° (Epoch: 21 September)

Event Time Altitude Azimuth Distance (km) Brightness Sun altitude
Rises 23:39:34 0° 350° (N) 3,283 6.9 -7.7°
Reaches altitude 10° 23:42:00 10° 354° (N) 2,354 6.2 -7.1°
Maximum altitude 23:47:18 64° 75° (ENE) 874 4.2 -6.0°
Drops below altitude 10° 23:52:36 10° 156° (SSE) 2,347 6.1 -4.8°
Sets 23:55:00 0° 160° (SSE) 3,272 6.8 -4.3°
